Bookmark and Share
Track history (hours):
 

Normed Antwerpen

Last reported at 2014-Apr-24 03:27 UTC. Time now 2014-Apr-24 06:05 UTC.
Position N 38°01' E 004°09'.

Length 130 m; draft 6.2 m.

Type: Ship. MMSI: 305210993.

NotesDate/timePositionNaut miles runAvg speedWind from/ knotsBaromVisibWave heightAir tempDewpointWater temp
2014-Apr-24 03:27N 38°01' E 004°09'1212.9
2014-Apr-24 02:33N 38°09' E 003°58'2612.8
2014-Apr-24 00:31N 38°27' E 003°35'1313.6
2014-Apr-23 23:33N 38°37' E 003°23'1313.6
2014-Apr-23 22:33N 38°46' E 003°11'1313.0
2014-Apr-23 21:33N 38°55' E 002°59'1313.0
2014-Apr-23 20:33N 39°05' E 002°47'1312.8
2014-Apr-23 19:33N 39°17' E 002°43'1313.1
2014-Apr-23 18:33N 39°30' E 002°39'3 3.3
2014-Apr-23 17:33N 39°33' E 002°38'0 0.0
2014-Apr-23 16:32N 39°33' E 002°38'0 0.0
2014-Apr-23 15:31N 39°33' E 002°38'0 0.0
2014-Apr-23 14:31N 39°33' E 002°38'0 0.0
2014-Apr-23 13:31N 39°33' E 002°38'0 0.0
2014-Apr-23 12:33N 39°33' E 002°38'0 0.0
2014-Apr-23 11:33N 39°33' E 002°38'2 1.7
2014-Apr-23 10:33N 39°32' E 002°40'0 0.0
2014-Apr-23 09:33N 39°32' E 002°40'0 0.1
2014-Apr-23 08:33N 39°32' E 002°39'3 3.5
2014-Apr-23 07:34N 39°29' E 002°37'1111.3
2014-Apr-23 06:33N 39°19' E 002°31'1111.5
2014-Apr-23 05:33N 39°10' E 002°22'1211.7
2014-Apr-23 04:33N 39°01' E 002°12'1211.7
2014-Apr-23 03:34N 38°52' E 002°02'1312.5
2014-Apr-23 02:33N 38°43' E 001°52'4912.0
2014-Apr-22 22:28N 38°12' E 001°03'6613.4
2014-Apr-22 17:32N 37°33' W 000°05'25812.3
2014-Apr-21 20:32N 36°01' W 005°06'1616.1
2014-Apr-21 19:33N 35°58' W 005°25'1915.2
2014-Apr-21 18:17N 35°54' W 005°48'22311.2
2014-Apr-20 22:24N 37°46' W 009°49'  
2014-Apr-18 01:21N 50°21' W 001°37'1113.8
2014-Apr-18 00:32N 50°25' W 001°21'1212.3
2014-Apr-17 23:33N 50°31' W 001°05'1111.1
2014-Apr-17 22:33N 50°41' W 000°57'1212.1
2014-Apr-17 21:34N 50°46' W 001°14'9 9.3
2014-Apr-17 20:33N 50°53' W 001°24'2 2.0
2014-Apr-17 19:31N 50°54' W 001°26'0 0.0
2014-Apr-17 18:31N 50°54' W 001°26'0 0.0
2014-Apr-17 17:33N 50°54' W 001°26'0 0.0
2014-Apr-17 16:33N 50°54' W 001°26'0 0.0
2014-Apr-17 15:33N 50°54' W 001°26'0 0.0
2014-Apr-17 14:29N 50°54' W 001°26'0 0.0
2014-Apr-17 13:32N 50°54' W 001°26'0 0.0
2014-Apr-17 12:31N 50°54' W 001°26'0 0.0
2014-Apr-17 11:31N 50°54' W 001°26'0 0.0
2014-Apr-17 10:33N 50°54' W 001°26'0 0.0
2014-Apr-17 09:33N 50°54' W 001°26'0 0.0
2014-Apr-17 08:30N 50°54' W 001°26'0 0.0
2014-Apr-17 07:29N 50°54' W 001°26'0 0.0
2014-Apr-17 06:32N 50°54' W 001°26'0 0.0
2014-Apr-17 05:31N 50°54' W 001°26'0 0.0
2014-Apr-17 04:25N 50°54' W 001°26'0 0.0
2014-Apr-17 03:33N 50°54' W 001°26'0 0.0
2014-Apr-17 02:24N 50°54' W 001°26'0 0.0
2014-Apr-17 01:33N 50°54' W 001°26'0 0.0
2014-Apr-17 00:17N 50°54' W 001°26'0 0.0
2014-Apr-16 23:32N 50°54' W 001°26'0 0.0
2014-Apr-16 22:32N 50°54' W 001°26'0 0.0
2014-Apr-16 21:28N 50°54' W 001°26'0 0.0
2014-Apr-16 20:33N 50°54' W 001°26'0 0.0
2014-Apr-16 19:33N 50°54' W 001°26'0 0.0
2014-Apr-16 18:33N 50°54' W 001°26'0 0.0
2014-Apr-16 17:29N 50°54' W 001°26'0 0.0
2014-Apr-16 16:29N 50°54' W 001°26'0 0.0
2014-Apr-16 15:28N 50°54' W 001°26'0 0.0
2014-Apr-16 14:31N 50°54' W 001°26'0 0.0
2014-Apr-16 13:28N 50°54' W 001°26'0 0.1
2014-Apr-16 12:33N 50°54' W 001°26'5 5.2
2014-Apr-16 11:33N 50°51' W 001°20'9 9.5
2014-Apr-16 10:34N 50°46' W 001°08'1110.6
2014-Apr-16 09:33N 50°38' W 000°56'1110.9
2014-Apr-16 08:33N 50°36' W 000°39'1211.5
2014-Apr-16 07:33N 50°34' W 000°21'1312.7
2014-Apr-16 06:31N 50°33' W 000°01'1414.2
2014-Apr-16 05:33N 50°35' E 000°20'1514.6
2014-Apr-16 04:33N 50°41' E 000°42'1414.2
2014-Apr-16 03:33N 50°50' E 000°60'2512.3
2014-Apr-16 01:33N 51°05' E 001°30'1010.4
2014-Apr-16 00:34N 51°12' E 001°42'1111.4
2014-Apr-15 23:33N 51°22' E 001°52'1413.8
2014-Apr-15 22:34N 51°33' E 002°06'1515.0
2014-Apr-15 21:33N 51°44' E 002°22'8713.6
2014-Apr-15 15:09N 52°52' E 003°50'712.0
2014-Apr-15 14:33N 52°58' E 003°58'13 6.5
2014-Apr-15 12:33N 53°06' E 004°14'4113.7
2014-Apr-15 09:34N 53°35' E 005°03'1312.8
2014-Apr-15 08:34N 53°38' E 005°24'1212.4
2014-Apr-15 07:34N 53°43' E 005°43'1111.5
2014-Apr-15 06:33N 53°47' E 006°01'4110.3
2014-Apr-15 02:33N 53°56' E 007°09'1312.7
2014-Apr-15 01:33N 53°58' E 007°31'8 7.6
2014-Apr-15 00:33N 53°56' E 007°43'7 7.3
2014-Apr-14 23:33N 53°52' E 007°54'1110.8
2014-Apr-14 22:34N 53°47' E 008°09'9 9.2
2014-Apr-14 21:34N 53°41' E 008°22'9 9.3
2014-Apr-14 20:34N 53°34' E 008°32'7 7.4
2014-Apr-14 19:34N 53°27' E 008°30'20 9.8
2014-Apr-14 17:34N 53°08' E 008°38'4 4.0
2014-Apr-14 16:32N 53°06' E 008°44'0 0.0
2014-Apr-14 15:31N 53°06' E 008°44'0 0.0
2014-Apr-14 14:31N 53°06' E 008°44'0 0.0
2014-Apr-14 13:33N 53°06' E 008°44'0 0.0
2014-Apr-14 11:32N 53°06' E 008°44'0 0.0
2014-Apr-14 10:32N 53°06' E 008°44'0 0.0
2014-Apr-14 09:32N 53°06' E 008°44'0 0.0
2014-Apr-14 08:31N 53°06' E 008°44'0 0.0
2014-Apr-14 07:31N 53°06' E 008°44'0 0.0
2014-Apr-14 06:33N 53°06' E 008°44'0 0.0
2014-Apr-14 05:33N 53°06' E 008°44'  

Dump ship's entire track history

sailing weather and tide predictions

Normed Antwerpen — V2DG9 — position and weather